Estherville, IA

8:27 AM CDT on October 17, 2017 (GMT -0500)
Estherville Municipal

Weather History for KEST - January, 2013

Change the Weather History Date:

Wednesday, January 9, 2013

  Actual Average Record
Temperature  
Mean Temperature 29 °F 15 °F  
Max Temperature 37 °F 24 °F 54 °F (1958)
Min Temperature 21 °F 7 °F -25 °F (1977)
Degree Days  
Heating Degree Days 36 50  
Month to date heating degree days 420 445  
Since 1 July heating degree days 3348 3588  
Cooling Degree Days 0 0  
Month to date cooling degree days 0 0  
Year to date cooling degree days 0 0  
Moisture  
Dew Point 25 °F    
Average Humidity 81    
Maximum Humidity 92    
Minimum Humidity 70    
Precipitation  
Precipitation 0.00 in 0.01 in 0.15 in (1957)
Month to date precipitation T 0.07  
Sea Level Pressure  
Sea Level Pressure 30.29 in    
Wind  
Wind Speed 11 mph (SW)    
Max Wind Speed 21 mph    
Max Gust Speed 24 mph    
Visibility 10 miles    
Events      
T = Trace of Precipitation, MM = Missing Value Source: NWS Daily Summary

Daily Weather History Graph

Daily Weather History Graph

Search for Another Location

Airport or City:

Trip Planner

Search our weather history database for the weather conditions in past years. The results will help you decide how hot, cold, wet, or windy it might be!

Date:

Astronomy

Jan. 09, 2013 Rise Set
Actual Time 7:50 AM CST 5:01 PM CST
Civil Twilight 7:18 AM CST 5:34 PM CST
Nautical Twilight 6:43 AM CST 6:09 PM CST
Astronomical Twilight 6:08 AM CST 6:44 PM CST
Moon 5:31 AM CST (1/9) 3:04 PM CST (1/9)
Length of Visible Light 10h 15m
Length of Day
9h 11m
Waning Crescent, 6% of the Moon is Illuminated
Jan 9
Waning Crescent
Jan 11
New
Jan 18
First Quarter
Jan 26
Full
Feb 3
Last Quarter

Hourly Weather History & Observations

Time (CST) Temp. Windchill Dew Point Humidity Pressure Visibility Wind Dir Wind Speed Gust Speed Precip Events Conditions
1:52 AM 30.9 °F 20.7 °F 26.1 °F 82% 30.09 in 10.0 mi West 13.8 mph - N/A   Mostly Cloudy
2:52 AM 28.9 °F 17.7 °F 25.0 °F 85% 30.12 in 10.0 mi West 15.0 mph - N/A   Clear
3:52 AM 30.0 °F 18.7 °F 25.0 °F 82% 30.14 in 10.0 mi West 16.1 mph - N/A   Clear
4:52 AM 30.0 °F 18.7 °F 25.0 °F 82% 30.17 in 10.0 mi West 16.1 mph - N/A   Clear
5:52 AM 30.9 °F 19.4 °F 24.1 °F 76% 30.17 in 10.0 mi WNW 17.3 mph - N/A   Clear
6:52 AM 26.1 °F 18.4 °F 21.0 °F 81% 30.21 in 10.0 mi NW 6.9 mph - N/A   Clear
7:52 AM 24.1 °F 17.0 °F 19.0 °F 81% 30.23 in 10.0 mi NW 5.8 mph - N/A   Clear
8:52 AM 25.0 °F 16.3 °F 19.0 °F 78% 30.25 in 10.0 mi WNW 8.1 mph - N/A   Clear
9:52 AM 26.1 °F 17.6 °F 21.0 °F 81% 30.33 in 10.0 mi SW 8.1 mph - N/A   Clear
11:52 AM 32.0 °F 22.1 °F 25.0 °F 75% 30.39 in 10.0 mi WSW 13.8 mph - N/A   Clear
12:52 PM 34.0 °F 23.0 °F 27.0 °F 75% 30.40 in 10.0 mi SW 18.4 mph - N/A   Clear
1:52 PM 36.0 °F 28.0 °F 27.0 °F 70% 30.39 in 10.0 mi West 11.5 mph - N/A   Clear
2:52 PM 36.0 °F 31.1 °F 28.0 °F 73% 30.37 in 10.0 mi WSW 5.8 mph - N/A   Clear
3:52 PM 35.1 °F 31.0 °F 28.9 °F 78% 30.36 in 10.0 mi South 4.6 mph - N/A   Clear
4:52 PM 33.1 °F 27.7 °F 28.0 °F 82% 30.37 in 10.0 mi South 5.8 mph - N/A   Clear
5:52 PM 30.9 °F 21.7 °F 25.0 °F 79% 30.35 in 10.0 mi SSE 11.5 mph - N/A   Clear
6:52 PM 30.9 °F 22.8 °F 27.0 °F 85% 30.36 in 10.0 mi South 9.2 mph - N/A   Clear
7:52 PM 30.0 °F 20.5 °F 26.1 °F 85% 30.37 in 10.0 mi SSE 11.5 mph - N/A   Clear
8:52 PM 30.0 °F 19.1 °F 27.0 °F 88% 30.35 in 10.0 mi South 15.0 mph - N/A   Clear
9:52 PM 28.9 °F 19.8 °F 26.1 °F 89% 30.35 in 10.0 mi South 10.4 mph - N/A   Clear
10:52 PM 28.0 °F 18.6 °F 25.0 °F 88% 30.34 in 9.0 mi South 10.4 mph - N/A   Clear
11:52 PM 28.0 °F 17.5 °F 25.0 °F 88% 30.34 in 8.0 mi South 12.7 mph - N/A   Clear